VIR255 KMCO-KATL

Flight info

Callsign VIR255
Flight time N/A
Altitude 40000
Route JEEMY4 PAINN SHRKS LAIRI LARZZ JJEDI4
Aircraft A35K/H-SDE2E3GHIJ3J4J5LM1ORWXY/LB1D1

Departure

Time 2026-04-24 11:06
Airport Orlando International Airport (KMCO)

Arrival

Time N/A
Airport Hartsfield Jackson Atlanta International Airport (KATL)
Time Latitude Longitude Altitude Speed Heading
2026-04-24 10:33 28.43700 -81.30130 100 ft 0 kts 123°
2026-04-24 10:56 28.43707 -81.30145 102 ft 4 kts 128°
2026-04-24 10:56 28.43721 -81.30162 101 ft 4 kts 129°
2026-04-24 10:56 28.43737 -81.30187 99 ft 4 kts 116°
2026-04-24 10:57 28.43745 -81.30215 97 ft 4 kts 88°
2026-04-24 10:57 28.43740 -81.30236 97 ft 0 kts 52°
2026-04-24 11:01 28.43752 -81.30220 95 ft 7 kts 52°
2026-04-24 11:01 28.43809 -81.30175 102 ft 13 kts 12°
2026-04-24 11:02 28.43882 -81.30157 105 ft 9 kts 36°
2026-04-24 11:02 28.43899 -81.30094 106 ft 11 kts 91°
2026-04-24 11:02 28.43888 -81.29993 104 ft 15 kts 107°
2026-04-24 11:02 28.43825 -81.29870 105 ft 21 kts 130°
2026-04-24 11:03 28.43686 -81.29811 103 ft 24 kts 177°
2026-04-24 11:03 28.43578 -81.29802 104 ft 12 kts 158°
2026-04-24 11:03 28.43547 -81.29715 104 ft 14 kts 89°
2026-04-24 11:03 28.43548 -81.29618 105 ft 9 kts 99°
2026-04-24 11:04 28.43497 -81.29589 105 ft 10 kts 177°
2026-04-24 11:04 28.43477 -81.29588 104 ft 0 kts 178°
2026-04-24 11:05 28.43422 -81.29587 105 ft 33 kts 179°
2026-04-24 11:05 28.42888 -81.29581 106 ft 118 kts 179°
2026-04-24 11:06 28.41822 -81.29573 181 ft 180 kts 180°
2026-04-24 11:06 28.40558 -81.29576 1085 ft 182 kts 180°
2026-04-24 11:06 28.39247 -81.29499 1873 ft 201 kts 174°
2026-04-24 11:06 28.37828 -81.29033 2463 ft 222 kts 154°
2026-04-24 11:07 28.35029 -81.26945 3888 ft 255 kts 140°
2026-04-24 11:07 28.33782 -81.25503 4773 ft 264 kts 128°
2026-04-24 11:07 28.32878 -81.23671 5682 ft 270 kts 107°
2026-04-24 11:08 28.32735 -81.21564 6738 ft 271 kts 79°
2026-04-24 11:08 28.33528 -81.19635 7695 ft 276 kts 48°
2026-04-24 11:08 28.35121 -81.18427 8659 ft 281 kts 16°
2026-04-24 11:08 28.37059 -81.18332 9691 ft 282 kts 345°
2026-04-24 11:09 28.38863 -81.19214 10604 ft 291 kts 322°
2026-04-24 11:09 28.40380 -81.20818 10921 ft 315 kts 313°
2026-04-24 11:09 28.41997 -81.22677 11451 ft 336 kts 315°
2026-04-24 11:09 28.43683 -81.24501 12378 ft 341 kts 316°
2026-04-24 11:10 28.45450 -81.26307 13437 ft 343 kts 317°
2026-04-24 11:10 28.47282 -81.28078 14338 ft 349 kts 319°
2026-04-24 11:10 28.49196 -81.29813 15226 ft 353 kts 321°
2026-04-24 11:10 28.51170 -81.31492 16152 ft 357 kts 322°
2026-04-24 11:11 28.53217 -81.33116 17062 ft 361 kts 324°
2026-04-24 11:11 28.55335 -81.34675 17968 ft 365 kts 326°
2026-04-24 11:11 28.57524 -81.36161 18803 ft 369 kts 328°
2026-04-24 11:11 28.59773 -81.37533 19548 ft 375 kts 332°
2026-04-24 11:12 28.62248 -81.38548 20340 ft 383 kts 343°
2026-04-24 11:12 28.64909 -81.39011 21130 ft 390 kts 351°
2026-04-24 11:12 28.67635 -81.39271 21907 ft 396 kts 352°
2026-04-24 11:12 28.70405 -81.39490 22492 ft 403 kts 353°
2026-04-24 11:13 28.73222 -81.39699 23278 ft 406 kts 353°